{"data":{"norad_id":59961,"epoch":"2026-05-25T02:11:16.434816Z","epoch_age_seconds":70404,"freshness":"FRESH","line1":"1 59961U 24107S   26145.09116244 -.00000409  00000+0 -16864-5 0  9993","line2":"2 59961  53.1606  70.6673 0001171  91.2851 268.8284 15.30192526111430","mean_motion":15.30192526,"eccentricity":0.0001171,"inclination_deg":53.1606,"raan_deg":70.6673,"arg_perigee_deg":91.2851,"mean_anomaly_deg":268.8284,"bstar":-1.6864e-6,"rev_number":11143,"period_min":94.105805350143,"perigee_km":474.43485538641,"apogee_km":476.0399156675,"semimajor_km":6853.374385527,"source":"CELESTRAK","updated_at":"2026-05-25T13:38:19.129876Z"}}